Погода в Прогрессе

Россия / Самарская область     52°30′57″N   49°01′38″E
темп.,
°C
ветер,
м/с
пор.,
м/с
влажн.,
%
обл.,
%
осадки,
мм/ч
давл.,
гПа
погр.,
м
28 июня, вт
вт2801:00+18з4995100 1.3 1013203
04:00+17ссз38962 1.4 1012184
07:00+17ссв610870 0.0 1013448
10:00+19ссв78691 0.0 1014934
13:00+19ссв89540 0.0 10151318
16:00+19ссв78480 0.0 10161511
19:00+17с68580 0.0 10171022
22:00+12ссв49751 0.0 1019206
29 июня, ср
ср2901:00+9ссв33780 0.0 101946
04:00+8с36770 0.0 1019111
07:00+11с46725 0.0 1020343
10:00+15с675998 0.0 10191527
13:00+16ссв575579 0.0 10191600
16:00+17с575384 0.0 10181650
19:00+17ссз3563100 0.0 1017274
22:00+13ссз337163 0.1 101746
30 июня, чт
чт3001:00+11сз33791 0.0 101725
04:00+10сз33806 0.0 101647
07:00+13сз477110 0.0 1015245
10:00+19сз57545 0.0 1014882
13:00+21сз6842100 0.0 10122497
16:00+21ссз794239 0.0 10122396
19:00+18ссз4960100 0.0 1011436
22:00+14с497455 0.1 1012255
1 июля, пт
пт101:00+10с388959 0.0 1013145
04:00+8ссз41084100 0.0 1014260
07:00+11с711742 0.0 1014607
10:00+15с8116036 0.0 10141476
13:00+16с81059100 0.1 10141826
16:00+16с7105920 0.1 10151332
19:00+16с610625 0.0 10151285
22:00+11с512790 0.0 1016347
2 июля, сб
сб201:00+9ссз410872 0.0 1016191
04:00+9ссз49865 0.0 1016166
07:00+13ссз510710 0.0 1017292
10:00+18ссз57550 0.0 1017868
13:00+22ссз57440 0.0 10161961
16:00+23ссз46420 0.0 10152078
19:00+22сз34565 0.0 1014199
22:00+17з336610 0.0 101424